EHI
0 0 0 0 0 0 0 0 0 0 0 0 0 0 0 0 0 1 0 0 1 2 3 2 1 0 0 0 0 0 0 0 0 0 0 0 0 0 0 0 0 0 0 0
0 0 0 0 0 0 0 0 0 0 0 0 0 0 0 0 0 1 1 0 1 2 2 2 1 0 0 0 0 0 0 0 0 0 0 0 0 0 0 0 0 0 0 0
0 0 0 0 0 0 0 0 0 0 0 0 0 0 0 0 0 1 1 0 0 1 1 1 0 0 0 0 0 0 0 0 0 0 0 0 0 0 0 0 0 0 0 0
0 0 0 0 0 0 0 0 0 0 0 0 0 0 0 0 0 0 0 0 0 0 0 0 0 0 0 0 0 0 0 0 0 0 0 0 0 0 0 0 0 0 0 0
0 0 0 0 0 0 0 0 0 0 0 0 0 0 0 0 0 0 0 0 0 0 0 0 0 0 0 0 0 0 0 0 0 0 0 0 0 0 0 0 0 0 0 0
0 0 0 0 0 0 0 0 0 0 0 0 0 0 0 0 1 1 0 0 0 0 0 0 0 0 0 0 0 0 0 0 0 0 0 0 0 0 0 0 0 0 0 0
0 0 0 0 0 0 0 0 0 0 0 0 0 0 0 0 1 1 1 0 0 0 0 0 0 0 0 0 0 0 0 0 0 0 0 0 0 0 0 0 0 0 0 0
0 0 0 0 0 0 0 0 0 0 0 0 0 0 0 0 1 1 1 1 1 0 0 0 0 0 0 0 0 0 0 0 0 0 0 0 0 0 0 0 0 0 0 0
0 0 0 0 0 0 0 0 0 0 0 0 0 0 0 0 0 1 2 2 1 0 0 0 0 0 0 0 0 0 0 0 0 0 0 0 0 0 0 0 0 0 0 0
0 0 0 0 0 0 0 0 0 0 0 0 0 0 0 0 0 1 1 1 0 0 0 0 0 0 0 0 0 0 0 0 0 0 0 0 0 0 0 0 0 0 0 0
0 0 0 0 0 0 0 0 0 0 0 0 0 0 0 0 0 0 0 0 0 0 0 0 0 0 0 0 0 0 0 0 0 0 0 0 0 0 0 0 0 0 0 0
0 0 0 0 0 0 0 0 0 0 0 0 0 0 0 0 0 0 0 0 0 0 0 0 0 0 0 0 0 0 0 0 0 0 0 0 0 0 0 0 0 0 0 0
0 0 0 0 0 0 0 0 0 0 0 0 0 0 0 0 0 0 0 0 0 0 0 0 0 0 0 0 0 0 0 0 0 0 0 0 0 0 0 0 0 0 0 0
0 0 0 0 0 0 0 0 0 0 0 0 0 0 0 0 0 0 0 0 0 0 0 0 0 0 0 0 0 0 0 0 0 0 0 0 0 0 0 0 0 0 0 0
0 0 0 0 0 0 0 0 0 0 0 0 0 0 0 0 0 0 0 0 0 0 0 0 0 0 0 0 0 0 0 0 1 1 1 0 0 0 0 0 0 0 0 0
0 0 0 0 0 0 0 0 0 0 0 0 0 0 0 0 0 0 0 0 0 0 0 0 0 0 0 0 0 0 0 0 1 1 1 0 0 0 0 0 0 0 0 0
0 0 0 0 0 0 0 0 0 0 0 0 0 0 0 0 0 0 0 0 0 0 0 0 0 0 0 0 0 0 0 0 0 0 0 0 0 0 0 0 0 0 0 0
0 0 0 0 0 0 0 0 0 0 0 0 0 0 0 0 0 0 0 0 0 0 0 0 0 0 0 0 0 0 0 0 0 0 0 0 0 0 0 0 0 0 0 0
0 0 0 0 0 0 0 0 0 0 0 0 0 0 0 0 0 0 0 0 0 0 0 0 0 0 0 0 0 0 0 0 0 0 0 0 0 0 0 0 0 0 0 0
0 0 0 0 0 0 0 0 0 0 0 0 0 0 0 0 0 0 0 0 0 0 0 0 0 0 0 0 0 0 0 0 0 0 0 0 0 0 0 0 0 0 0 0
0 0 0 0 0 0 0 0 0 0 0 0 0 0 0 0 0 0 0 0 0 0 0 0 0 0 0 0 0 0 0 0 0 0 0 0 0 0 0 0 0 0 0 0
0 0 0 0 0 0 0 0 0 0 0 0 0 0 0 0 0 0 0 0 0 0 0 0 0 0 0 0 0 0 0 0 0 0 0 0 0 0 0 0 0 0 0 0
0 0 0 0 0 0 0 0 0 0 0 0 0 0 0 0 0 0 0 0 0 0 0 0 0 0 0 0 0 0 0 0 0 0 0 0 0 0 0 0 0 0 0 0
0 0 0 0 0 0 0 0 0 0 0 0 0 0 0 0 0 0 0 0 0 0 0 0 0 0 0 0 0 0 0 0 0 0 0 0 0 0 0 0 0 0 0 0
0 0 0 0 0 0 0 0 0 0 0 0 0 0 0 0 0 0 0 0 0 0 0 0 0 0 0 0 0 0 0 0 0 0 0 0 0 0 0 0 0 0 0 0
0 0 0 0 0 0 0 0 0 0 0 0 0 0 0 0 0 0 0 0 0 0 0 0 0 0 0 0 0 0 0 0 0 0 0 0 0 0 0 0 0 0 0 0
0 0 0 0 0 0 0 0 0 0 0 0 0 0 0 0 0 0 0 0 0 0 0 0 0 0 0 0 0 0 0 0 0 0 0 0 0 0 0 0 0 0 0 0
Wind_Speed
6 6 6 7 8 8 9 9 7 6 2 3 5 5 7 8 7 8 8 9 9 8 7 8 7 7 6 6 6 6 5 5 4 4 4 4 4 3 2 1 1 2 2 3
8 7 7 8 8 9 10 9 9 8 5 2 3 4 6 8 8 8 8 9 9 9 8 8 8 8 7 7 7 6 6 5 4 3 4 4 4 3 2 2 1 2 2 2
6 6 7 9 9 9 9 8 7 6 3 2 2 3 4 7 8 8 8 8 9 9 9 8 9 9 8 8 7 7 6 5 5 4 4 4 4 4 3 2 2 1 1 1
6 7 8 4 1 1 3 5 4 3 1 1 2 3 3 4 6 7 7 7 8 8 8 8 7 8 7 7 7 7 6 5 5 5 5 4 4 4 3 3 2 2 2 2
6 7 7 4 1 2 2 2 3 3 1 1 2 4 3 3 4 5 6 6 6 6 7 7 7 7 8 8 7 7 6 6 6 6 6 5 5 4 3 3 2 3 2 2
6 8 7 1 3 3 1 2 1 1 2 2 3 2 2 3 4 4 4 5 5 5 6 6 6 7 7 7 7 7 6 6 6 6 6 6 5 4 3 3 3 2 2 2
8 9 5 1 3 1 1 2 3 4 3 2 2 2 2 4 4 4 4 5 5 5 5 5 6 7 6 6 6 6 6 6 6 6 6 5 5 4 3 3 3 3 3 3
7 8 3 3 1 1 4 5 5 5 4 3 2 2 4 5 5 5 4 5 5 4 4 4 5 6 5 5 5 5 6 6 5 5 5 5 5 4 4 4 4 3 3 3
2 0 4 3 4 5 5 4 5 5 4 2 1 1 3 4 4 4 5 5 4 4 4 4 5 5 5 4 5 5 6 5 5 5 4 4 5 5 4 4 3 3 3 3
2 1 2 3 3 3 4 4 4 3 3 2 0 1 2 3 3 4 4 4 4 4 4 4 4 5 4 4 5 5 6 6 5 5 5 5 4 4 4 3 3 3 3 3
4 3 1 1 2 3 3 3 3 3 2 2 1 0 1 2 4 4 4 4 4 4 4 4 4 5 5 5 5 5 5 5 5 5 5 4 4 4 4 4 4 4 3 3
2 2 2 2 4 4 3 3 3 3 3 2 1 1 1 2 3 3 3 4 4 4 4 4 5 5 5 5 5 5 4 4 3 3 3 4 4 3 5 5 7 8 6 5
2 3 3 2 2 2 2 3 3 2 2 2 1 0 1 2 3 3 3 4 4 5 4 4 4 4 5 5 5 5 4 4 3 3 3 4 4 4 3 4 6 7 8 8
2 2 2 2 2 3 3 3 3 2 2 2 1 1 1 1 2 3 3 3 3 4 4 4 4 4 4 4 4 4 4 4 4 3 3 3 3 4 4 4 4 4 7 10
2 2 2 2 2 3 3 3 2 1 1 1 1 1 1 2 2 2 2 2 3 3 4 4 4 4 4 4 4 4 3 3 3 3 3 3 3 3 3 4 4 3 3 4
1 1 1 1 1 2 3 3 3 2 1 1 0 0 0 1 1 1 2 3 3 4 4 4 4 3 4 4 4 3 3 5 4 3 3 3 3 3 3 3 3 3 3 3
1 1 1 1 2 2 3 3 3 2 1 1 1 0 0 1 1 1 1 2 2 2 2 3 2 2 3 3 3 2 2 3 5 4 3 3 3 3 3 3 3 3 3 3
1 1 1 1 2 2 2 3 3 3 2 2 1 1 1 1 1 1 1 1 1 1 1 2 2 2 2 2 2 2 2 3 3 3 3 3 2 2 2 3 3 3 2 3
0 1 1 1 2 2 2 2 3 3 2 2 1 1 1 1 1 1 1 1 2 2 1 2 1 0 1 1 1 1 2 2 2 2 2 3 3 3 3 3 3 3 2 2
2 2 2 2 2 2 3 3 3 3 2 2 1 2 2 1 1 0 0 1 1 0 1 1 1 0 0 0 1 1 2 2 2 2 2 2 3 3 3 3 3 3 3 3
1 1 1 1 2 2 2 2 2 2 2 2 1 1 1 1 1 0 0 0 0 1 1 0 0 0 0 1 2 1 2 2 2 2 2 2 2 2 3 3 3 3 3 3
0 0 1 1 1 1 2 2 2 2 3 2 2 1 1 1 1 1 1 0 0 1 0 0 0 1 2 2 2 2 2 2 2 2 2 2 2 3 3 3 3 3 3 3
0 0 0 1 1 2 2 2 2 2 2 2 2 2 1 1 0 0 1 1 1 1 1 1 1 2 3 3 2 2 2 2 2 2 2 2 2 2 2 3 3 3 3 3
1 1 1 1 1 2 2 2 3 2 2 2 2 2 1 1 1 1 1 1 1 1 1 0 1 3 3 2 2 2 2 2 2 2 2 1 1 2 2 3 3 3 3 4
1 2 2 2 2 1 1 2 2 2 2 1 2 2 2 1 1 1 1 0 0 1 1 1 2 2 2 2 2 1 2 2 2 1 1 1 2 2 3 3 3 3 3 3
1 1 1 2 2 1 1 2 2 2 2 2 2 2 2 2 1 1 0 0 0 1 1 1 1 2 2 1 1 2 2 2 2 2 2 2 2 3 3 3 4 3 3 3
1 1 1 1 1 1 1 2 2 2 2 2 2 2 2 2 1 1 1 1 1 1 1 1 1 1 1 1 1 2 2 2 2 2 2 2 3 3 3 4 4 3 3 3
Wind_Direction
255 245 226 228 226 229 241 254 269 284 281 182 172 165 153 150 150 157 163 166 168 168 167 168 173 177 170 164 162 165 169 181 183 170 154 152 141 144 144 124 126 109 104 95
263 249 242 243 236 234 240 251 260 269 276 235 165 149 151 155 158 164 170 173 171 174 173 177 179 179 172 167 169 169 173 176 167 155 141 142 145 149 138 129 107 90 85 86
274 263 257 252 237 228 233 241 247 255 254 170 159 155 158 157 160 168 172 173 174 179 180 184 184 178 173 171 168 169 169 166 160 156 149 152 158 150 148 150 137 112 110 107
277 272 263 263 224 208 239 255 257 268 252 182 153 143 137 145 160 169 170 171 176 179 179 179 178 173 167 163 167 169 165 164 160 159 157 155 155 160 168 164 159 162 180 166
269 269 266 269 256 194 221 262 273 263 217 137 120 126 121 135 149 159 164 168 172 175 170 170 173 169 163 165 168 168 168 167 164 161 160 161 165 168 169 169 170 175 184 175
262 269 273 278 74 61 344 265 13 76 98 110 132 161 150 137 140 143 143 150 157 162 164 167 168 161 164 170 171 172 168 166 163 163 164 168 172 173 171 172 180 179 188 190
251 261 269 23 109 156 255 32 56 59 59 73 98 91 115 117 118 129 131 136 143 154 164 166 160 157 167 171 174 165 156 157 158 160 165 169 172 172 170 175 183 195 201 199
236 249 256 75 127 65 39 32 36 48 48 53 62 59 103 117 123 128 128 132 140 151 154 151 151 155 166 171 162 147 146 151 159 162 170 174 169 175 180 183 190 203 210 218
267 94 92 74 47 40 29 15 25 31 23 26 24 57 117 130 135 138 141 142 144 146 144 147 152 157 168 163 147 143 147 156 162 165 168 167 172 180 186 189 193 206 208 217
261 199 92 83 69 41 26 17 19 14 357 339 357 109 122 139 142 145 149 150 150 152 159 167 164 162 164 152 149 154 164 169 173 177 177 179 178 181 186 195 203 212 212 218
256 267 317 84 52 34 27 12 9 359 348 341 343 141 145 160 156 156 158 157 162 169 170 173 166 167 164 159 161 172 179 178 180 182 181 181 181 188 193 197 196 201 213 211
262 310 304 41 42 30 11 355 350 350 345 340 335 215 180 169 154 155 163 164 169 169 170 179 175 172 170 168 173 183 190 188 185 180 178 180 183 198 211 208 205 209 211 214
307 353 3 13 24 4 341 335 329 329 319 309 311 180 169 156 149 156 168 176 180 175 174 181 178 177 175 178 184 190 190 184 180 183 186 193 192 196 211 229 229 231 229 229
28 13 338 356 358 343 329 327 327 332 339 347 1 56 133 147 150 164 177 183 178 173 176 178 175 181 178 180 186 194 193 191 186 185 191 201 205 206 205 206 219 235 235 233
355 352 340 356 353 340 332 325 317 320 356 3 9 14 168 168 176 180 172 171 172 179 181 177 177 181 176 181 190 196 194 191 191 188 195 206 211 215 220 221 221 218 212 225
336 5 353 320 309 312 316 314 307 311 329 337 348 298 245 175 170 179 175 172 181 192 188 181 185 180 173 179 186 194 200 204 198 193 205 214 216 219 224 227 231 227 220 214
208 211 233 273 295 306 305 308 312 316 326 336 321 293 252 170 167 179 189 183 190 199 178 171 174 174 178 179 184 193 196 199 203 212 217 220 223 225 230 231 234 238 237 218
247 261 267 294 303 300 311 325 329 331 334 332 331 333 286 228 209 197 194 189 179 184 170 156 155 180 184 178 186 196 207 209 209 216 215 216 223 231 237 242 245 248 249 233
5 339 345 349 344 339 338 343 334 329 333 339 323 297 284 273 251 226 207 198 197 201 170 106 112 176 176 168 208 218 221 219 223 228 222 222 226 230 233 239 244 244 244 243
37 23 24 12 2 3 0 358 350 343 344 342 331 325 321 320 322 286 222 243 246 221 120 122 182 215 213 253 277 260 251 242 234 235 234 226 228 235 241 248 251 254 255 249
45 20 18 8 6 6 358 352 355 356 355 358 352 331 319 321 327 342 146 274 337 61 84 144 229 142 96 305 281 273 259 254 251 247 240 241 245 248 250 253 254 255 259 262
32 22 9 355 355 355 359 7 11 4 2 360 355 1 8 8 27 27 4 291 66 68 17 97 51 26 335 312 280 270 263 259 257 253 245 243 249 257 260 261 260 258 256 260
231 0 348 332 340 350 359 5 9 11 8 1 354 359 7 3 21 356 312 356 73 34 1 341 310 306 306 289 268 268 267 263 261 257 251 251 255 258 262 268 268 267 264 266
357 359 347 343 351 347 350 4 10 8 8 4 360 354 353 1 7 19 40 72 39 344 337 264 280 295 298 285 273 270 271 269 265 266 271 274 283 294 292 285 279 277 279 282
330 332 336 347 340 345 354 358 357 354 349 349 345 349 351 1 345 353 28 62 102 316 285 250 285 289 283 286 292 297 298 286 280 278 269 268 268 271 273 273 272 273 272 270
324 330 338 329 336 350 348 345 340 337 336 340 346 356 1 359 359 4 18 336 278 305 297 263 251 258 278 296 303 297 289 283 285 274 265 270 273 273 270 271 274 270 268 270
303 315 325 324 336 346 350 343 337 335 339 337 340 345 346 346 352 350 337 312 289 278 278 271 269 274 282 286 289 288 286 283 281 278 274 273 272 271 273 276 275 273 274 274